Hudson Falls, NY

2:04 AM EST on February 09, 2016 (GMT -0500)
Bennett Memorial

Weather History for KGFL - October, 2012

Change the Weather History Date:

Monday, October 22, 2012

  Actual Average Record
Temperature  
Mean Temperature 54 °F 44 °F  
Max Temperature 66 °F 56 °F 81 °F (1979)
Min Temperature 41 °F 33 °F 20 °F (1959)
Degree Days  
Heating Degree Days 11 20  
Month to date heating degree days 322 372  
Since 1 July heating degree days 551 657  
Cooling Degree Days 0 0  
Month to date cooling degree days 0 0  
Year to date cooling degree days 533 351  
Growing Degree Days 3 (Base 50)    
Moisture  
Dew Point 42 °F    
Average Humidity 69    
Maximum Humidity 100    
Minimum Humidity 37    
Precipitation  
Precipitation 0.01 in 0.11 in 1.06 in (1970)
Month to date precipitation 4.23 2.51  
Year to date precipitation 30.26 31.70  
Sea Level Pressure  
Sea Level Pressure 29.99 in    
Wind  
Wind Speed 4 mph (NW)    
Max Wind Speed 18 mph    
Max Gust Speed 25 mph    
Visibility 10 miles    
Events      
T = Trace of Precipitation, MM = Missing Value Source: NWS Daily Summary

Daily Weather History Graph

Daily Weather History Graph

Search for Another Location

Airport or City:

Trip Planner

Search our weather history database for the weather conditions in past years. The results will help you decide how hot, cold, wet, or windy it might be!

Date:

Astronomy

Oct. 22, 2012 Rise Set
Actual Time 7:17 AM EDT 5:59 PM EDT
Civil Twilight 6:48 AM EDT 6:28 PM EDT
Nautical Twilight 6:15 AM EDT 7:01 PM EDT
Astronomical Twilight 5:42 AM EDT 7:34 PM EDT
Moon 2:16 PM EDT (10/22) No Moon Set
Length of Visible Light 11h 40m
Length of Day
10h 42m
First Quarter, 56% of the Moon is Illuminated
Oct 22
First Quarter
Oct 29
Full
Nov 6
Last Quarter
Nov 13
New
Nov 20
First Quarter

Hourly Weather History & Observations

Time (EDT) Temp. Dew Point Humidity Pressure Visibility Wind Dir Wind Speed Gust Speed Precip Events Conditions
12:53 AM 46.9 °F 45.0 °F 93% 29.94 in 10.0 mi Calm Calm - N/A   Overcast
1:53 AM 46.9 °F 45.0 °F 93% 29.94 in 10.0 mi Calm Calm - N/A   Overcast
2:53 AM 48.0 °F 46.0 °F 93% 29.94 in 10.0 mi Calm Calm - N/A   Overcast
3:53 AM 48.0 °F 46.0 °F 93% 29.95 in 10.0 mi Calm Calm - N/A   Overcast
4:53 AM 48.9 °F 45.0 °F 86% 29.96 in 10.0 mi Calm Calm - 0.01 in   Overcast
5:53 AM 48.9 °F 45.0 °F 86% 29.97 in 10.0 mi Calm Calm - N/A   Overcast
6:53 AM 43.0 °F 43.0 °F 100% 29.99 in 8.0 mi Calm Calm - N/A   Mostly Cloudy
7:53 AM 42.8 °F 42.8 °F 100% 29.99 in 10.0 mi Calm Calm - N/A   Partly Cloudy
10:53 AM 57.0 °F 42.1 °F 57% 30.00 in 10.0 mi East 5.8 mph - N/A   Mostly Cloudy
11:53 AM 60.1 °F 39.9 °F 47% 29.99 in 10.0 mi WNW 18.4 mph 25.3 mph N/A   Partly Cloudy
12:53 PM 62.1 °F 39.9 °F 44% 29.98 in 10.0 mi WNW 12.7 mph 24.2 mph N/A   Clear
1:53 PM 64.0 °F 39.0 °F 40% 29.97 in 10.0 mi WNW 10.4 mph 16.1 mph N/A   Clear
2:53 PM 64.0 °F 37.9 °F 38% 29.97 in 10.0 mi NNW 9.2 mph 19.6 mph N/A   Clear
3:53 PM 64.9 °F 39.0 °F 39% 29.96 in 10.0 mi NNW 6.9 mph - N/A   Clear
4:53 PM 64.0 °F 37.0 °F 37% 29.97 in 10.0 mi NNW 10.4 mph 18.4 mph N/A   Clear
5:53 PM 60.1 °F 39.0 °F 46% 29.98 in 10.0 mi NNW 5.8 mph - N/A   Clear
6:53 PM 60.1 °F 39.9 °F 47% 30.00 in 10.0 mi NW 6.9 mph - N/A   Clear
7:53 PM 57.9 °F 41.0 °F 53% 30.03 in 10.0 mi WNW 3.5 mph - N/A   Clear
8:53 PM 55.4 °F 39.2 °F 54% 30.03 in 10.0 mi WNW 3.5 mph - N/A   Clear
9:53 PM 48.9 °F 39.9 °F 71% 30.05 in 10.0 mi Variable 3.5 mph - N/A   Clear
10:53 PM 50.0 °F 39.0 °F 66% 30.05 in 10.0 mi North 4.6 mph - N/A   Clear
11:53 PM 46.0 °F 43.0 °F 89% 30.05 in 10.0 mi Calm Calm - N/A   Clear